Location: Newark
(33.6439°N, 114.9881°W)
Time: 20:32:37
(UTC+00:00)

Tiros 1 - Visible Passes

Search period start: 17 July 2019 00:00
Search period end: 27 July 2019 00:00
Orbit: 630 x 664 km, 48.4° (Epoch: 16 July)

Date Brightness Start Highest point End Pass type
(mag) Time Alt. Az. Time Alt. Az. Time Alt. Az.
17 Jul 7.9 03:08:57 10° NW 03:13:30 43° NNE 03:18:00 10° ESE visible
17 Jul 8.2 04:51:24 10° WNW 04:55:35 32° SW 04:56:26 29° SSW visible
18 Jul 7.2 03:34:54 10° NW 03:39:41 86° SW 03:43:44 14° SE visible
18 Jul 9.5 05:19:26 10° WSW 05:21:18 12° SW 05:21:25 12° SW visible
19 Jul 8.3 04:01:18 10° WNW 04:05:37 35° SW 04:08:47 16° SSE visible
20 Jul 9.5 04:28:59 10° W 04:31:21 14° SW 04:33:42 10° SSW visible
21 Jul 8.3 03:11:13 10° WNW 03:15:39 38° SW 03:20:01 10° SSE visible
22 Jul 9.5 03:38:39 10° W 03:41:23 15° SW 03:44:08 10° SSW visible
